When you browse on this site, cookies collect data to enhance your experience and personalize the content and advertising you see.
Visit our Privacy Policy to learn more. By continuing to use the site, you agree to this use of cookies and data.
  • In Lithuania
  • List of Countries
  • For 7 days
  • Water Temperature
  • Weather Map
  • Weather Widgets
  • user-avatar
    Login

    Hourly Weather Córdoba

    Today, 8 December, Sunday

    Time Temperature Precipitation Wind Pressure Humidity
    00:00 +24°C° 0 mm 2 mps 721 mmHg 39%
    01:00 +23°C° 0 mm 2 mps 721 mmHg 39%
    02:00 +23°C° 0 mm 2 mps 721 mmHg 41%
    03:00 +23°C° 0 mm 2 mps 721 mmHg 42%
    04:00 +23°C° 0 mm 2 mps 721 mmHg 42%
    05:00 +23°C° 0 mm 2 mps 721 mmHg 42%
    06:00 +25°C° 0 mm 3 mps 722 mmHg 38%
    07:00 +26°C° 0 mm 3 mps 722 mmHg 34%
    08:00 +27°C° 0 mm 1 mps 723 mmHg 36%
    09:00 +29°C° 0 mm 1 mps 723 mmHg 33%
    10:00 +31°C° 0 mm 1 mps 723 mmHg 30%
    11:00 +33°C° 0 mm 1 mps 723 mmHg 26%
    12:00 +34°C° 0 mm 1 mps 722 mmHg 24%
    13:00 +36°C° 0 mm 2 mps 721 mmHg 21%
    14:00 +37°C° 0 mm 2 mps 721 mmHg 19%
    15:00 +36°C° 0 mm 3 mps 721 mmHg 22%
    16:00 +35°C° 0 mm 3 mps 720 mmHg 25%
    17:00 +33°C° 0 mm 4 mps 720 mmHg 29%
    18:00 +30°C° 0 mm 3 mps 720 mmHg 32%
    19:00 +28°C° 0 mm 3 mps 721 mmHg 36%
    20:00 +26°C° 0 mm 2 mps 721 mmHg 39%
    21:00 +26°C° 0 mm 2 mps 721 mmHg 39%
    22:00 +25°C° 0 mm 2 mps 721 mmHg 38%
    23:00 +25°C° 0 mm 2 mps 722 mmHg 37%

    Tomorrow, 9 December, Monday

    Time Temperature Precipitation Wind Pressure Humidity
    00:00 +25°C° 0 mm 2 mps 721 mmHg 37%
    01:00 +25°C° 0 mm 2 mps 721 mmHg 36%
    02:00 +25°C° 0 mm 2 mps 721 mmHg 36%
    03:00 +25°C° 0 mm 2 mps 721 mmHg 36%
    04:00 +24°C° 0 mm 2 mps 721 mmHg 37%
    05:00 +24°C° 0 mm 2 mps 721 mmHg 37%
    06:00 +27°C° 0 mm 2 mps 722 mmHg 34%
    07:00 +29°C° 0 mm 2 mps 722 mmHg 30%
    08:00 +33°C° 0 mm 3 mps 723 mmHg 27%
    09:00 +34°C° 0 mm 3 mps 723 mmHg 23%
    10:00 +36°C° 0 mm 3 mps 723 mmHg 20%
    11:00 +38°C° 0 mm 3 mps 722 mmHg 16%
    12:00 +38°C° 0 mm 3 mps 722 mmHg 15%
    13:00 +39°C° 0 mm 3 mps 721 mmHg 14%
    14:00 +39°C° 0 mm 3 mps 721 mmHg 14%
    15:00 +40°C° 0 mm 4 mps 720 mmHg 15%
    16:00 +40°C° 0 mm 4 mps 720 mmHg 15%
    17:00 +38°C° 0 mm 4 mps 719 mmHg 16%
    18:00 +36°C° 0 mm 4 mps 719 mmHg 19%
    19:00 +34°C° 0 mm 4 mps 719 mmHg 22%
    20:00 +30°C° 0 mm 3 mps 719 mmHg 25%
    21:00 +29°C° 0 mm 3 mps 720 mmHg 26%
    22:00 +28°C° 0 mm 3 mps 720 mmHg 27%
    23:00 +27°C° 0 mm 3 mps 720 mmHg 29%

    Day after tomorrow, 10 December, Tuesday

    Time Temperature Precipitation Wind Pressure Humidity
    00:00 +27°C° 0 mm 3 mps 720 mmHg 30%
    01:00 +27°C° 0 mm 3 mps 720 mmHg 31%
    02:00 +27°C° 0 mm 3 mps 720 mmHg 32%
    03:00 +27°C° 0 mm 3 mps 720 mmHg 33%
    04:00 +26°C° 0 mm 3 mps 720 mmHg 35%
    05:00 +26°C° 0 mm 3 mps 720 mmHg 37%
    06:00 +28°C° 0 mm 3 mps 721 mmHg 34%
    07:00 +30°C° 0 mm 3 mps 721 mmHg 32%
    08:00 +34°C° 0 mm 4 mps 722 mmHg 30%
    09:00 +36°C° 0 mm 3 mps 722 mmHg 26%
    10:00 +38°C° 0 mm 3 mps 722 mmHg 22%
    11:00 +39°C° 0 mm 3 mps 722 mmHg 18%
    12:00 +39°C° 0 mm 3 mps 721 mmHg 19%
    13:00 +40°C° 0 mm 4 mps 720 mmHg 19%
    14:00 +40°C° 0 mm 4 mps 719 mmHg 20%
    15:00 +40°C° 0 mm 4 mps 719 mmHg 20%
    16:00 +39°C° 0 mm 3 mps 718 mmHg 20%
    17:00 +39°C° 0 mm 2 mps 718 mmHg 20%
    18:00 +37°C° 0 mm 2 mps 718 mmHg 23%
    19:00 +35°C° 0 mm 2 mps 718 mmHg 26%
    20:00 +32°C° 0 mm 2 mps 718 mmHg 29%
    21:00 +31°C° 0 mm 2 mps 718 mmHg 30%
    22:00 +30°C° 0 mm 2 mps 719 mmHg 31%
    23:00 +29°C° 0 mm 2 mps 719 mmHg 32%

    11 December, Wednesday

    Time Temperature Precipitation Wind Pressure Humidity
    00:00 +29°C° 0 mm 2 mps 718 mmHg 33%
    01:00 +28°C° 0 mm 2 mps 718 mmHg 34%
    02:00 +28°C° 0 mm 2 mps 718 mmHg 35%
    03:00 +28°C° 0 mm 2 mps 717 mmHg 36%
    04:00 +28°C° 0 mm 2 mps 717 mmHg 37%
    05:00 +27°C° 0 mm 2 mps 717 mmHg 38%
    06:00 +30°C° 0 mm 3 mps 717 mmHg 34%
    07:00 +33°C° 0 mm 4 mps 717 mmHg 31%
    08:00 +36°C° 0 mm 5 mps 717 mmHg 27%
    09:00 +39°C° 0 mm 5 mps 717 mmHg 25%
    10:00 +40°C° 0 mm 5 mps 717 mmHg 23%
    11:00 +42°C° 0 mm 5 mps 716 mmHg 21%
    12:00 +42°C° 0 mm 5 mps 716 mmHg 20%
    13:00 +42°C° 0 mm 4 mps 715 mmHg 20%
    14:00 +42°C° 0 mm 4 mps 715 mmHg 19%
    15:00 +40°C° 0 mm 5 mps 715 mmHg 26%
    16:00 +36°C° 0 mm 6 mps 714 mmHg 32%
    17:00 +34°C° 0 mm 7 mps 714 mmHg 38%
    18:00 +32°C° 0 mm 6 mps 715 mmHg 45%
    19:00 +29°C° 0 mm 5 mps 715 mmHg 52%
    20:00 +27°C° 0 mm 5 mps 716 mmHg 58%
    21:00 +26°C° 0.1 mm 4 mps 717 mmHg 59%
    22:00 +25°C° 0.1 mm 3 mps 718 mmHg 60%
    23:00 +25°C° 0.1 mm 2 mps 718 mmHg 62%

    12 December, Thursday

    Time Temperature Precipitation Wind Pressure Humidity
    00:00 +25°C° 0 mm 4 mps 719 mmHg 58%
    01:00 +23°C° 0 mm 5 mps 719 mmHg 54%
    02:00 +23°C° 0 mm 7 mps 719 mmHg 50%
    03:00 +23°C° 0 mm 6 mps 719 mmHg 43%
    04:00 +23°C° 0 mm 5 mps 720 mmHg 36%
    05:00 +22°C° 0 mm 5 mps 720 mmHg 30%
    06:00 +23°C° 0 mm 5 mps 720 mmHg 26%
    07:00 +24°C° 0 mm 6 mps 721 mmHg 22%
    08:00 +26°C° 0 mm 7 mps 721 mmHg 18%
    09:00 +28°C° 0 mm 6 mps 722 mmHg 16%
    10:00 +29°C° 0 mm 6 mps 722 mmHg 14%
    11:00 +30°C° 0 mm 6 mps 722 mmHg 12%
    12:00 +32°C° 0 mm 6 mps 722 mmHg 11%
    13:00 +33°C° 0 mm 5 mps 721 mmHg 11%
    14:00 +34°C° 0 mm 5 mps 721 mmHg 11%
    15:00 +33°C° 0 mm 5 mps 720 mmHg 11%
    16:00 +33°C° 0 mm 5 mps 720 mmHg 11%
    17:00 +33°C° 0 mm 5 mps 719 mmHg 11%
    18:00 +30°C° 0 mm 4 mps 720 mmHg 13%
    19:00 +27°C° 0 mm 3 mps 720 mmHg 14%
    20:00 +25°C° 0 mm 2 mps 721 mmHg 16%
    21:00 +24°C° 0 mm 2 mps 721 mmHg 18%
    22:00 +22°C° 0 mm 3 mps 722 mmHg 19%
    23:00 +21°C° 0 mm 3 mps 722 mmHg 20%

    13 December, Friday

    Time Temperature Precipitation Wind Pressure Humidity
    00:00 +20°C° 0 mm 2 mps 723 mmHg 21%
    01:00 +19°C° 0 mm 2 mps 723 mmHg 21%
    02:00 +19°C° 0 mm 2 mps 723 mmHg 21%
    03:00 +18°C° 0 mm 2 mps 723 mmHg 21%
    04:00 +17°C° 0 mm 2 mps 723 mmHg 22%
    05:00 +17°C° 0 mm 2 mps 723 mmHg 22%
    06:00 +18°C° 0 mm 2 mps 724 mmHg 20%
    07:00 +20°C° 0 mm 2 mps 724 mmHg 18%
    08:00 +23°C° 0 mm 2 mps 724 mmHg 16%
    09:00 +25°C° 0 mm 3 mps 724 mmHg 15%
    10:00 +27°C° 0 mm 4 mps 724 mmHg 14%
    11:00 +29°C° 0 mm 4 mps 724 mmHg 13%
    12:00 +30°C° 0 mm 5 mps 723 mmHg 13%
    13:00 +32°C° 0 mm 5 mps 723 mmHg 13%
    14:00 +33°C° 0 mm 6 mps 722 mmHg 13%
    15:00 +33°C° 0 mm 6 mps 721 mmHg 15%
    16:00 +33°C° 0 mm 6 mps 720 mmHg 17%
    17:00 +33°C° 0 mm 6 mps 720 mmHg 18%
    18:00 +30°C° 0 mm 4 mps 720 mmHg 20%
    19:00 +28°C° 0 mm 3 mps 720 mmHg 22%
    20:00 +26°C° 0 mm 2 mps 720 mmHg 24%
    21:00 +25°C° 0 mm 2 mps 720 mmHg 25%
    22:00 +24°C° 0 mm 2 mps 720 mmHg 26%
    23:00 +24°C° 0 mm 2 mps 721 mmHg 26%
    Show more